Year,Month,Day,Hour,Minute,Value (Times are PST for temperature in C)
2018,08,21,00,00,16.60
2018,08,21,00,01,16.60
2018,08,21,00,02,16.60
2018,08,21,00,03,16.60
2018,08,21,00,04,16.60
2018,08,21,00,05,16.60
2018,08,21,00,06,16.60
2018,08,21,00,07,16.60
2018,08,21,00,08,16.60
2018,08,21,00,09,16.60
2018,08,21,00,10,16.60
2018,08,21,00,11,16.60
2018,08,21,00,12,16.60
2018,08,21,00,13,16.50
2018,08,21,00,14,16.50
2018,08,21,00,15,16.50
2018,08,21,00,16,16.50
2018,08,21,00,17,16.50
2018,08,21,00,18,16.50
2018,08,21,00,19,16.50
2018,08,21,00,20,16.50
2018,08,21,00,21,16.50
2018,08,21,00,22,16.50
2018,08,21,00,23,16.50
2018,08,21,00,24,16.50
2018,08,21,00,25,16.50
2018,08,21,00,26,16.50
2018,08,21,00,27,16.60
2018,08,21,00,28,16.60
2018,08,21,00,29,16.60
2018,08,21,00,30,16.60
2018,08,21,00,31,16.60
2018,08,21,00,32,16.60
2018,08,21,00,33,16.60
2018,08,21,00,34,16.60
2018,08,21,00,35,16.60
2018,08,21,00,36,16.50
2018,08,21,00,37,16.50
2018,08,21,00,38,16.50
2018,08,21,00,39,16.50
2018,08,21,00,40,16.50
2018,08,21,00,41,16.40
2018,08,21,00,42,16.40
2018,08,21,00,43,16.40
2018,08,21,00,44,16.40
2018,08,21,00,45,16.40
2018,08,21,00,46,16.40
2018,08,21,00,47,16.40
2018,08,21,00,48,16.40
2018,08,21,00,49,16.30
2018,08,21,00,50,16.30
2018,08,21,00,51,16.30
2018,08,21,00,52,16.30
2018,08,21,00,53,16.30
2018,08,21,00,54,16.30
2018,08,21,00,55,16.30
2018,08,21,00,56,16.30
2018,08,21,00,57,16.30
2018,08,21,00,58,16.30
2018,08,21,00,59,16.30
2018,08,21,01,00,16.20
2018,08,21,01,01,16.20
2018,08,21,01,02,16.20
2018,08,21,01,03,16.20
2018,08,21,01,04,16.20
2018,08,21,01,05,16.20
2018,08,21,01,06,16.20
2018,08,21,01,07,16.20
2018,08,21,01,08,16.20
2018,08,21,01,09,16.20
2018,08,21,01,10,16.20
2018,08,21,01,11,16.20
2018,08,21,01,12,16.10
2018,08,21,01,13,16.10
2018,08,21,01,14,16.10
2018,08,21,01,15,16.10
2018,08,21,01,16,16.10
2018,08,21,01,17,16.10
2018,08,21,01,18,16.10
2018,08,21,01,19,16.10
2018,08,21,01,20,16.10
2018,08,21,01,21,16.10
2018,08,21,01,22,16.10
2018,08,21,01,23,16.10
2018,08,21,01,24,16.10
2018,08,21,01,25,16.00
2018,08,21,01,26,16.00
2018,08,21,01,27,16.00
2018,08,21,01,28,16.00
2018,08,21,01,29,16.00
2018,08,21,01,30,15.90
2018,08,21,01,31,15.90
2018,08,21,01,32,15.90
2018,08,21,01,33,15.90
2018,08,21,01,34,15.90
2018,08,21,01,35,15.90
2018,08,21,01,36,15.80
2018,08,21,01,37,15.80
2018,08,21,01,38,15.80
2018,08,21,01,39,15.80
2018,08,21,01,40,15.80
2018,08,21,01,41,15.80
2018,08,21,01,42,15.80
2018,08,21,01,43,15.80
2018,08,21,01,44,15.70
2018,08,21,01,45,15.70
2018,08,21,01,46,15.70
2018,08,21,01,47,15.70
2018,08,21,01,48,15.70
2018,08,21,01,49,15.70
2018,08,21,01,50,15.70
2018,08,21,01,51,15.70
2018,08,21,01,52,15.70
2018,08,21,01,53,15.70
2018,08,21,01,54,15.70
2018,08,21,01,55,15.70
2018,08,21,01,56,15.70
2018,08,21,01,57,15.70
2018,08,21,01,58,15.70
2018,08,21,01,59,15.70
2018,08,21,02,00,15.70
2018,08,21,02,01,15.70
2018,08,21,02,02,15.70
2018,08,21,02,03,15.70
2018,08,21,02,04,15.70
2018,08,21,02,05,15.70
2018,08,21,02,06,15.70
2018,08,21,02,07,15.70
2018,08,21,02,08,15.70
2018,08,21,02,09,15.70
2018,08,21,02,10,15.70
2018,08,21,02,11,15.70
2018,08,21,02,12,15.70
2018,08,21,02,13,15.60
2018,08,21,02,14,15.60
2018,08,21,02,15,15.60
2018,08,21,02,16,15.60
2018,08,21,02,17,15.60
2018,08,21,02,18,15.60
2018,08,21,02,19,15.60
2018,08,21,02,20,15.60
2018,08,21,02,21,15.60
2018,08,21,02,22,15.60
2018,08,21,02,23,15.60
2018,08,21,02,24,15.60
2018,08,21,02,25,15.60
2018,08,21,02,26,15.50
2018,08,21,02,27,15.50
2018,08,21,02,28,15.50
2018,08,21,02,29,15.50
2018,08,21,02,30,15.40
2018,08,21,02,31,15.40
2018,08,21,02,32,15.40
2018,08,21,02,33,15.40
2018,08,21,02,34,15.40
2018,08,21,02,35,15.40
2018,08,21,02,36,15.40
2018,08,21,02,37,15.40
2018,08,21,02,38,15.40
2018,08,21,02,39,15.40
2018,08,21,02,40,15.40
2018,08,21,02,41,15.40
2018,08,21,02,42,15.40
2018,08,21,02,43,15.40
2018,08,21,02,44,15.40
2018,08,21,02,45,15.40
2018,08,21,02,46,15.40
2018,08,21,02,47,15.40
2018,08,21,02,48,15.40
2018,08,21,02,49,15.30
2018,08,21,02,50,15.30
2018,08,21,02,51,15.30
2018,08,21,02,52,15.30
2018,08,21,02,53,15.30
2018,08,21,02,54,15.30
2018,08,21,02,55,15.20
2018,08,21,02,56,15.20
2018,08,21,02,57,15.20
2018,08,21,02,58,15.20
2018,08,21,02,59,15.10
2018,08,21,03,00,15.10
2018,08,21,03,01,15.10
2018,08,21,03,02,15.10
2018,08,21,03,03,15.10
2018,08,21,03,04,15.10
2018,08,21,03,05,15.10
2018,08,21,03,06,15.00
2018,08,21,03,07,15.00
2018,08,21,03,08,15.00
2018,08,21,03,09,15.00
2018,08,21,03,10,15.00
2018,08,21,03,11,15.00
2018,08,21,03,12,15.00
2018,08,21,03,13,15.00
2018,08,21,03,14,15.00
2018,08,21,03,15,15.00
2018,08,21,03,16,15.00
2018,08,21,03,17,15.00
2018,08,21,03,18,15.00
2018,08,21,03,19,15.00
2018,08,21,03,20,15.00
2018,08,21,03,21,15.00
2018,08,21,03,22,15.00
2018,08,21,03,23,15.00
2018,08,21,03,24,15.00
2018,08,21,03,25,14.90
2018,08,21,03,26,14.90
2018,08,21,03,27,14.90
2018,08,21,03,28,14.90
2018,08,21,03,29,14.90
2018,08,21,03,30,14.90
2018,08,21,03,31,14.90
2018,08,21,03,32,14.90
2018,08,21,03,33,14.90
2018,08,21,03,34,14.80
2018,08,21,03,35,14.80
2018,08,21,03,36,14.80
2018,08,21,03,37,14.80
2018,08,21,03,38,14.80
2018,08,21,03,39,14.80
2018,08,21,03,40,14.80
2018,08,21,03,41,14.80
2018,08,21,03,42,14.70
2018,08,21,03,43,14.70
2018,08,21,03,44,14.70
2018,08,21,03,45,14.70
2018,08,21,03,46,14.70
2018,08,21,03,47,14.60
2018,08,21,03,48,14.60
2018,08,21,03,49,14.60
2018,08,21,03,50,14.60
2018,08,21,03,51,14.60
2018,08,21,03,52,14.60
2018,08,21,03,53,14.60
2018,08,21,03,54,14.60
2018,08,21,03,55,14.60
2018,08,21,03,56,14.60
2018,08,21,03,57,14.60
2018,08,21,03,58,14.50
2018,08,21,03,59,14.50
2018,08,21,04,00,14.50
2018,08,21,04,01,14.50
2018,08,21,04,02,14.50
2018,08,21,04,03,14.50
2018,08,21,04,04,14.50
2018,08,21,04,05,14.50
2018,08,21,04,06,14.50
2018,08,21,04,07,14.50
2018,08,21,04,08,14.50
2018,08,21,04,09,14.50
2018,08,21,04,10,14.50
2018,08,21,04,11,14.50
2018,08,21,04,12,14.40
2018,08,21,04,13,14.40
2018,08,21,04,14,14.40
2018,08,21,04,15,14.40
2018,08,21,04,16,14.40
2018,08,21,04,17,14.40
2018,08,21,04,18,14.40
2018,08,21,04,19,14.30
2018,08,21,04,20,14.30
2018,08,21,04,21,14.30
2018,08,21,04,22,14.30
2018,08,21,04,23,14.30
2018,08,21,04,24,14.30
2018,08,21,04,25,14.30
2018,08,21,04,26,14.30
2018,08,21,04,27,14.20
2018,08,21,04,28,14.20
2018,08,21,04,29,14.20
2018,08,21,04,30,14.20
2018,08,21,04,31,14.20
2018,08,21,04,32,14.20
2018,08,21,04,33,14.20
2018,08,21,04,34,14.20
2018,08,21,04,35,14.20
2018,08,21,04,36,14.20
2018,08,21,04,37,14.20
2018,08,21,04,38,14.20
2018,08,21,04,39,14.20
2018,08,21,04,40,14.20
2018,08,21,04,41,14.20
2018,08,21,04,42,14.20
2018,08,21,04,43,14.20
2018,08,21,04,44,14.20
2018,08,21,04,45,14.20
2018,08,21,04,46,14.20
2018,08,21,04,47,14.20
2018,08,21,04,48,14.20
2018,08,21,04,49,14.20
2018,08,21,04,50,14.20
2018,08,21,04,51,14.10
2018,08,21,04,52,14.10
2018,08,21,04,53,14.10
2018,08,21,04,54,14.10
2018,08,21,04,55,14.10
2018,08,21,04,56,14.10
2018,08,21,04,57,14.10
2018,08,21,04,58,14.10
2018,08,21,04,59,14.10
2018,08,21,05,00,14.10
2018,08,21,05,01,14.00
2018,08,21,05,02,14.00
2018,08,21,05,03,14.00
2018,08,21,05,04,14.00
2018,08,21,05,05,14.00
2018,08,21,05,06,14.00
2018,08,21,05,07,14.00
2018,08,21,05,08,14.00
2018,08,21,05,09,13.90
2018,08,21,05,10,13.90
2018,08,21,05,11,13.90
2018,08,21,05,12,13.90
2018,08,21,05,13,13.90
2018,08,21,05,14,13.90
2018,08,21,05,15,13.90
2018,08,21,05,16,13.90
2018,08,21,05,17,13.90
2018,08,21,05,18,13.90
2018,08,21,05,19,13.90
2018,08,21,05,20,13.90
2018,08,21,05,21,13.90
2018,08,21,05,22,13.90
2018,08,21,05,23,13.90
2018,08,21,05,24,13.90
2018,08,21,05,25,13.80
2018,08,21,05,26,13.80
2018,08,21,05,27,13.80
2018,08,21,05,28,13.80
2018,08,21,05,29,13.80
2018,08,21,05,30,13.80
2018,08,21,05,31,13.80
2018,08,21,05,32,13.80
2018,08,21,05,33,13.80
2018,08,21,05,34,13.80
2018,08,21,05,35,13.70
2018,08,21,05,36,13.70
2018,08,21,05,37,13.70
2018,08,21,05,38,13.70
2018,08,21,05,39,13.70
2018,08,21,05,40,13.70
2018,08,21,05,41,13.70
2018,08,21,05,42,13.60
2018,08,21,05,43,13.60
2018,08,21,05,44,13.60
2018,08,21,05,45,13.60
2018,08,21,05,46,13.60
2018,08,21,05,47,13.60
2018,08,21,05,48,13.60
2018,08,21,05,49,13.60
2018,08,21,05,50,13.60
2018,08,21,05,51,13.50
2018,08,21,05,52,13.50
2018,08,21,05,53,13.50
2018,08,21,05,54,13.50
2018,08,21,05,55,13.50
2018,08,21,05,56,13.50
2018,08,21,05,57,13.50
2018,08,21,05,58,13.50
2018,08,21,05,59,13.50
2018,08,21,06,00,13.50
2018,08,21,06,01,13.50
2018,08,21,06,02,13.50
2018,08,21,06,03,13.50
2018,08,21,06,04,13.50
2018,08,21,06,05,13.50
2018,08,21,06,06,13.50
2018,08,21,06,07,13.50
2018,08,21,06,08,13.50
2018,08,21,06,09,13.50
2018,08,21,06,10,13.40
2018,08,21,06,11,13.40
2018,08,21,06,12,13.40
2018,08,21,06,13,13.40
2018,08,21,06,14,13.40
2018,08,21,06,15,13.40
2018,08,21,06,16,13.40
2018,08,21,06,17,13.40
2018,08,21,06,18,13.40
2018,08,21,06,19,13.30
2018,08,21,06,20,13.30
2018,08,21,06,21,13.30
2018,08,21,06,22,13.30
2018,08,21,06,23,13.30
2018,08,21,06,24,13.30
2018,08,21,06,25,13.30
2018,08,21,06,26,13.30
2018,08,21,06,27,13.20
2018,08,21,06,28,13.20
2018,08,21,06,29,13.20
2018,08,21,06,30,13.20
2018,08,21,06,31,13.20
2018,08,21,06,32,13.20
2018,08,21,06,33,13.20
2018,08,21,06,34,13.20
2018,08,21,06,35,13.20
2018,08,21,06,36,13.20
2018,08,21,06,37,13.20
2018,08,21,06,38,13.20
2018,08,21,06,39,13.20
2018,08,21,06,40,13.20
2018,08,21,06,41,13.20
2018,08,21,06,42,13.20
2018,08,21,06,43,13.20
2018,08,21,06,44,13.20
2018,08,21,06,45,13.20
2018,08,21,06,46,13.20
2018,08,21,06,47,13.20
2018,08,21,06,48,13.20
2018,08,21,06,49,13.10
2018,08,21,06,50,13.10
2018,08,21,06,51,13.20
2018,08,21,06,52,13.20
2018,08,21,06,53,13.20
2018,08,21,06,54,13.10
2018,08,21,06,55,13.20
2018,08,21,06,56,13.20
2018,08,21,06,57,13.20
2018,08,21,06,58,13.20
2018,08,21,06,59,13.20
2018,08,21,07,00,13.20
2018,08,21,07,01,13.20
2018,08,21,07,02,13.20
2018,08,21,07,03,13.20
2018,08,21,07,04,13.20
2018,08,21,07,05,13.20
2018,08,21,07,06,13.20
2018,08,21,07,07,13.20
2018,08,21,07,08,13.20
2018,08,21,07,09,13.20
2018,08,21,07,10,13.20
2018,08,21,07,11,13.20
2018,08,21,07,12,13.20
2018,08,21,07,13,13.20
2018,08,21,07,14,13.20
2018,08,21,07,15,13.20
2018,08,21,07,16,13.20
2018,08,21,07,17,13.20
2018,08,21,07,18,13.30
2018,08,21,07,19,13.30
2018,08,21,07,20,13.30
2018,08,21,07,21,13.30
2018,08,21,07,22,13.30
2018,08,21,07,23,13.30
2018,08,21,07,24,13.30
2018,08,21,07,25,13.30
2018,08,21,07,26,13.40
2018,08,21,07,27,13.40
2018,08,21,07,28,13.40
2018,08,21,07,29,13.40
2018,08,21,07,30,13.40
2018,08,21,07,31,13.50
2018,08,21,07,32,13.50
2018,08,21,07,33,13.50
2018,08,21,07,34,13.50
2018,08,21,07,35,13.50
2018,08,21,07,36,13.60
2018,08,21,07,37,13.60
2018,08,21,07,38,13.60
2018,08,21,07,39,13.60
2018,08,21,07,40,13.60
2018,08,21,07,41,13.60
2018,08,21,07,42,13.60
2018,08,21,07,43,13.60
2018,08,21,07,44,13.60
2018,08,21,07,45,13.60
2018,08,21,07,46,13.70
2018,08,21,07,47,13.70
2018,08,21,07,48,13.70
2018,08,21,07,49,13.70
2018,08,21,07,50,13.70
2018,08,21,07,51,13.70
2018,08,21,07,52,13.80
2018,08,21,07,53,13.80
2018,08,21,07,54,13.80
2018,08,21,07,55,13.80
2018,08,21,07,56,13.90
2018,08,21,07,57,13.90
2018,08,21,07,58,13.90
2018,08,21,07,59,13.90
2018,08,21,08,00,14.00
2018,08,21,08,01,14.00
2018,08,21,08,02,14.00
2018,08,21,08,03,14.10
2018,08,21,08,04,14.10
2018,08,21,08,05,14.10
2018,08,21,08,06,14.10
2018,08,21,08,07,14.20
2018,08,21,08,08,14.20
2018,08,21,08,09,14.20
2018,08,21,08,10,14.20
2018,08,21,08,11,14.30
2018,08,21,08,12,14.30
2018,08,21,08,13,14.30
2018,08,21,08,14,14.40
2018,08,21,08,15,14.40
2018,08,21,08,16,14.40
2018,08,21,08,17,14.50
2018,08,21,08,18,14.50
2018,08,21,08,19,14.60
2018,08,21,08,20,14.60
2018,08,21,08,21,14.70
2018,08,21,08,22,14.70
2018,08,21,08,23,14.70
2018,08,21,08,24,14.80
2018,08,21,08,25,14.80
2018,08,21,08,26,14.80
2018,08,21,08,27,14.90
2018,08,21,08,28,14.90
2018,08,21,08,29,14.90
2018,08,21,08,30,15.00
2018,08,21,08,31,15.00
2018,08,21,08,32,15.00
2018,08,21,08,33,15.10
2018,08,21,08,34,15.20
2018,08,21,08,35,15.20
2018,08,21,08,36,15.30
2018,08,21,08,37,15.30
2018,08,21,08,38,15.30
2018,08,21,08,39,15.40
2018,08,21,08,40,15.50
2018,08,21,08,41,15.50
2018,08,21,08,42,15.60
2018,08,21,08,43,15.70
2018,08,21,08,44,15.70
2018,08,21,08,45,15.70
2018,08,21,08,46,15.80
2018,08,21,08,47,15.80
2018,08,21,08,48,15.90
2018,08,21,08,49,16.00
2018,08,21,08,50,16.10
2018,08,21,08,51,16.10
2018,08,21,08,52,16.20
2018,08,21,08,53,16.20
2018,08,21,08,54,16.30
2018,08,21,08,55,16.30
2018,08,21,08,56,16.40
2018,08,21,08,57,16.40
2018,08,21,08,58,16.50
2018,08,21,08,59,16.60
2018,08,21,09,00,16.60
2018,08,21,09,01,16.60
2018,08,21,09,02,16.70
2018,08,21,09,03,16.70
2018,08,21,09,04,16.80
2018,08,21,09,05,16.80
2018,08,21,09,06,16.90
2018,08,21,09,07,16.90
2018,08,21,09,08,17.00
2018,08,21,09,09,17.10
2018,08,21,09,10,17.10
2018,08,21,09,11,17.20
2018,08,21,09,12,17.20
2018,08,21,09,13,17.30
2018,08,21,09,14,17.30
2018,08,21,09,15,17.40
2018,08,21,09,16,17.40
2018,08,21,09,17,17.50
2018,08,21,09,18,17.60
2018,08,21,09,19,17.70
2018,08,21,09,20,17.80
2018,08,21,09,21,17.80
2018,08,21,09,22,17.90
2018,08,21,09,23,18.00
2018,08,21,09,24,18.00
2018,08,21,09,25,18.10
2018,08,21,09,26,18.10
2018,08,21,09,27,18.20
2018,08,21,09,28,18.30
2018,08,21,09,29,18.40
2018,08,21,09,30,18.40
2018,08,21,09,31,18.50
2018,08,21,09,32,18.60
2018,08,21,09,33,18.70
2018,08,21,09,34,18.80
2018,08,21,09,35,18.90
2018,08,21,09,36,19.00
2018,08,21,09,37,19.10
2018,08,21,09,38,19.20
2018,08,21,09,39,19.30
2018,08,21,09,40,19.40
2018,08,21,09,41,19.40
2018,08,21,09,42,19.60
2018,08,21,09,43,19.70
2018,08,21,09,44,19.90
2018,08,21,09,45,20.00
2018,08,21,09,46,20.20
2018,08,21,09,47,20.30
2018,08,21,09,48,20.40
2018,08,21,09,49,20.40
2018,08,21,09,50,20.50
2018,08,21,09,51,20.70
2018,08,21,09,52,20.90
2018,08,21,09,53,21.10
2018,08,21,09,54,21.20
2018,08,21,09,55,21.30
2018,08,21,09,56,21.40
2018,08,21,09,57,21.60
2018,08,21,09,58,21.70
2018,08,21,09,59,21.80
2018,08,21,10,00,21.90
2018,08,21,10,01,22.00
2018,08,21,10,02,22.10
2018,08,21,10,03,22.20
2018,08,21,10,04,22.30
2018,08,21,10,05,22.40
2018,08,21,10,06,22.50
2018,08,21,10,07,22.50
2018,08,21,10,08,22.60
2018,08,21,10,09,22.70
2018,08,21,10,10,22.90
2018,08,21,10,11,23.00
2018,08,21,10,12,23.00
2018,08,21,10,13,23.10
2018,08,21,10,14,23.20
2018,08,21,10,15,23.20
2018,08,21,10,16,23.30
2018,08,21,10,17,23.30
2018,08,21,10,18,23.30
2018,08,21,10,19,23.30
2018,08,21,10,20,23.40
2018,08,21,10,21,23.40
2018,08,21,10,22,23.40
2018,08,21,10,23,23.50
2018,08,21,10,24,23.50
2018,08,21,10,25,23.60
2018,08,21,10,26,23.70
2018,08,21,10,27,23.80
2018,08,21,10,28,23.90
2018,08,21,10,29,23.90
2018,08,21,10,30,24.00
2018,08,21,10,31,24.10
2018,08,21,10,32,24.10
2018,08,21,10,33,24.20
2018,08,21,10,34,24.30
2018,08,21,10,35,24.30
2018,08,21,10,36,24.40
2018,08,21,10,37,24.40
2018,08,21,10,38,24.50
2018,08,21,10,39,24.50
2018,08,21,10,40,24.60
2018,08,21,10,41,24.60
2018,08,21,10,42,24.70
2018,08,21,10,43,24.70
2018,08,21,10,44,24.70
2018,08,21,10,45,24.80
2018,08,21,10,46,24.80
2018,08,21,10,47,24.80
2018,08,21,10,48,24.80
2018,08,21,10,49,24.80
2018,08,21,10,50,24.80
2018,08,21,10,51,24.80
2018,08,21,10,52,24.80
2018,08,21,10,53,24.90
2018,08,21,10,54,24.90
2018,08,21,10,55,24.90
2018,08,21,10,56,25.00
2018,08,21,10,57,25.00
2018,08,21,10,58,25.10
2018,08,21,10,59,25.10
2018,08,21,11,00,25.20
2018,08,21,11,01,25.20
2018,08,21,11,02,25.30
2018,08,21,11,03,25.30
2018,08,21,11,04,25.30
2018,08,21,11,05,25.30
2018,08,21,11,06,25.40
2018,08,21,11,07,25.40
2018,08,21,11,08,25.40
2018,08,21,11,09,25.50
2018,08,21,11,10,25.50
2018,08,21,11,11,25.50
2018,08,21,11,12,25.60
2018,08,21,11,13,25.60
2018,08,21,11,14,25.60
2018,08,21,11,15,25.60
2018,08,21,11,16,25.60
2018,08,21,11,17,25.60
2018,08,21,11,18,25.60
2018,08,21,11,19,25.70
2018,08,21,11,20,25.70
2018,08,21,11,21,25.70
2018,08,21,11,22,25.70
2018,08,21,11,23,25.70
2018,08,21,11,24,25.70
2018,08,21,11,25,25.70
2018,08,21,11,26,25.70
2018,08,21,11,27,25.70
2018,08,21,11,28,25.70
2018,08,21,11,29,25.70
2018,08,21,11,30,25.70
2018,08,21,11,31,25.70
2018,08,21,11,32,25.70
2018,08,21,11,33,25.70
2018,08,21,11,34,25.60
2018,08,21,11,35,25.50
2018,08,21,11,36,25.50
2018,08,21,11,37,25.40
2018,08,21,11,38,25.40
2018,08,21,11,39,25.40
2018,08,21,11,40,25.30
2018,08,21,11,41,25.30
2018,08,21,11,42,25.30
2018,08,21,11,43,25.30
2018,08,21,11,44,25.30
2018,08,21,11,45,25.30
2018,08,21,11,46,25.30
2018,08,21,11,47,25.30
2018,08,21,11,48,25.40
2018,08,21,11,49,25.40
2018,08,21,11,50,25.40
2018,08,21,11,51,25.40
2018,08,21,11,52,25.40
2018,08,21,11,53,25.50
2018,08,21,11,54,25.50
2018,08,21,11,55,25.50
2018,08,21,11,56,25.50
2018,08,21,11,57,25.50
2018,08,21,11,58,25.50
2018,08,21,11,59,25.50
2018,08,21,12,00,25.50
2018,08,21,12,01,25.50
2018,08,21,12,02,25.50
2018,08,21,12,03,25.50
2018,08,21,12,04,25.60
2018,08,21,12,05,25.60
2018,08,21,12,06,25.60
2018,08,21,12,07,25.70
2018,08,21,12,08,25.70
2018,08,21,12,09,25.70
2018,08,21,12,10,25.60
2018,08,21,12,11,25.70
2018,08,21,12,12,25.70
2018,08,21,12,13,25.70
2018,08,21,12,14,25.70
2018,08,21,12,15,25.70
2018,08,21,12,16,25.80
2018,08,21,12,17,25.80
2018,08,21,12,18,25.90
2018,08,21,12,19,25.90
2018,08,21,12,20,26.00
2018,08,21,12,21,26.00
2018,08,21,12,22,26.10
2018,08,21,12,23,26.20
2018,08,21,12,24,26.20
2018,08,21,12,25,26.20
2018,08,21,12,26,26.20
2018,08,21,12,27,26.30
2018,08,21,12,28,26.30
2018,08,21,12,29,26.30
2018,08,21,12,30,26.30
2018,08,21,12,31,26.30
2018,08,21,12,32,26.40
2018,08,21,12,33,26.40
2018,08,21,12,34,26.40
2018,08,21,12,35,26.50
2018,08,21,12,36,26.50
2018,08,21,12,37,26.60
2018,08,21,12,38,26.60
2018,08,21,12,39,26.60
2018,08,21,12,40,26.70
2018,08,21,12,41,26.70
2018,08,21,12,42,26.80
2018,08,21,12,43,26.80
2018,08,21,12,44,26.90
2018,08,21,12,45,26.90
2018,08,21,12,46,26.90
2018,08,21,12,47,26.90
2018,08,21,12,48,26.90
2018,08,21,12,49,26.90
2018,08,21,12,50,26.90
2018,08,21,12,51,26.90
2018,08,21,12,52,26.90
2018,08,21,12,53,26.90
2018,08,21,12,54,26.90
2018,08,21,12,55,27.00
2018,08,21,12,56,27.00
2018,08,21,12,57,27.00
2018,08,21,12,58,27.10
2018,08,21,12,59,27.10
2018,08,21,13,00,27.20
2018,08,21,13,01,27.30
2018,08,21,13,02,27.40
2018,08,21,13,03,27.50
2018,08,21,13,04,27.60
2018,08,21,13,05,27.60
2018,08,21,13,06,27.60
2018,08,21,13,07,27.60
2018,08,21,13,08,27.60
2018,08,21,13,09,27.50
2018,08,21,13,10,27.40
2018,08,21,13,11,27.50
2018,08,21,13,12,27.50
2018,08,21,13,13,27.50
2018,08,21,13,14,27.60
2018,08,21,13,15,27.60
2018,08,21,13,16,27.60
2018,08,21,13,17,27.70
2018,08,21,13,18,27.70
2018,08,21,13,19,27.80
2018,08,21,13,20,27.80
2018,08,21,13,21,27.70
2018,08,21,13,22,27.70
2018,08,21,13,23,27.70
2018,08,21,13,24,27.80
2018,08,21,13,25,27.80
2018,08,21,13,26,27.80
2018,08,21,13,27,27.80
2018,08,21,13,28,27.80
2018,08,21,13,29,27.90
2018,08,21,13,30,28.00
2018,08,21,13,31,28.20
2018,08,21,13,32,28.30
2018,08,21,13,33,28.50
2018,08,21,13,34,28.60
2018,08,21,13,35,28.70
2018,08,21,13,36,28.80
2018,08,21,13,37,28.80
2018,08,21,13,38,28.80
2018,08,21,13,39,28.80
2018,08,21,13,40,28.90
2018,08,21,13,41,29.00
2018,08,21,13,42,29.00
2018,08,21,13,43,29.00
2018,08,21,13,44,29.00
2018,08,21,13,45,28.90
2018,08,21,13,46,28.90
2018,08,21,13,47,28.90
2018,08,21,13,48,28.90
2018,08,21,13,49,28.90
2018,08,21,13,50,28.80
2018,08,21,13,51,28.80
2018,08,21,13,52,28.80
2018,08,21,13,53,28.80
2018,08,21,13,54,28.80
2018,08,21,13,55,28.80
2018,08,21,13,56,28.80
2018,08,21,13,57,28.90
2018,08,21,13,58,29.00
2018,08,21,13,59,29.10
2018,08,21,14,00,29.20
2018,08,21,14,01,29.20
2018,08,21,14,02,29.20
2018,08,21,14,03,29.20
2018,08,21,14,04,29.10
2018,08,21,14,05,29.10
2018,08,21,14,06,29.00
2018,08,21,14,07,29.00
2018,08,21,14,08,28.90
2018,08,21,14,09,28.90
2018,08,21,14,10,29.00
2018,08,21,14,11,29.10
2018,08,21,14,12,29.20
2018,08,21,14,13,29.20
2018,08,21,14,14,29.30
2018,08,21,14,15,29.20
2018,08,21,14,16,29.20
2018,08,21,14,17,29.10
2018,08,21,14,18,29.00
2018,08,21,14,19,29.00
2018,08,21,14,20,28.90
2018,08,21,14,21,28.80
2018,08,21,14,22,28.90
2018,08,21,14,23,28.90
2018,08,21,14,24,29.00
2018,08,21,14,25,29.10
2018,08,21,14,26,29.20
2018,08,21,14,27,29.30
2018,08,21,14,28,29.30
2018,08,21,14,29,29.40
2018,08,21,14,30,29.40
2018,08,21,14,31,29.50
2018,08,21,14,32,29.60
2018,08,21,14,33,29.70
2018,08,21,14,34,29.80
2018,08,21,14,35,29.90
2018,08,21,14,36,30.00
2018,08,21,14,37,30.10
2018,08,21,14,38,30.20
2018,08,21,14,39,30.20
2018,08,21,14,40,30.20
2018,08,21,14,41,30.20
2018,08,21,14,42,30.10
2018,08,21,14,43,30.00
2018,08,21,14,44,30.00
2018,08,21,14,45,30.00
2018,08,21,14,46,30.00
2018,08,21,14,47,30.00
2018,08,21,14,48,30.00
2018,08,21,14,49,30.00
2018,08,21,14,50,29.90
2018,08,21,14,51,29.80
2018,08,21,14,52,29.80
2018,08,21,14,53,29.80
2018,08,21,14,54,29.90
2018,08,21,14,55,29.90
2018,08,21,14,56,30.00
2018,08,21,14,57,30.10
2018,08,21,14,58,30.10
2018,08,21,14,59,30.10
2018,08,21,15,00,30.00
2018,08,21,15,01,29.90
2018,08,21,15,02,29.90
2018,08,21,15,03,29.80
2018,08,21,15,04,29.80
2018,08,21,15,05,29.80
2018,08,21,15,06,29.80
2018,08,21,15,07,29.80
2018,08,21,15,08,30.00
2018,08,21,15,09,30.10
2018,08,21,15,10,30.20
2018,08,21,15,11,30.20
2018,08,21,15,12,30.30
2018,08,21,15,13,30.50
2018,08,21,15,14,30.50
2018,08,21,15,15,30.60
2018,08,21,15,16,30.70
2018,08,21,15,17,30.70
2018,08,21,15,18,30.80
2018,08,21,15,19,30.80
2018,08,21,15,20,30.80
2018,08,21,15,21,30.90
2018,08,21,15,22,30.90
2018,08,21,15,23,30.80
2018,08,21,15,24,30.70
2018,08,21,15,25,30.60
2018,08,21,15,26,30.50
2018,08,21,15,27,30.40
2018,08,21,15,28,30.40
2018,08,21,15,29,30.40
2018,08,21,15,30,30.40
2018,08,21,15,31,30.30
2018,08,21,15,32,30.30
2018,08,21,15,33,30.30
2018,08,21,15,34,30.20
2018,08,21,15,35,30.20
2018,08,21,15,36,30.20
2018,08,21,15,37,30.10
2018,08,21,15,38,30.10
2018,08,21,15,39,30.10
2018,08,21,15,40,30.10
2018,08,21,15,41,30.00
2018,08,21,15,42,30.00
2018,08,21,15,43,29.90
2018,08,21,15,44,29.90
2018,08,21,15,45,29.80
2018,08,21,15,46,29.80
2018,08,21,15,47,29.70
2018,08,21,15,48,29.70
2018,08,21,15,49,29.70
2018,08,21,15,50,29.70
2018,08,21,15,51,29.70
2018,08,21,15,52,29.60
2018,08,21,15,53,29.60
2018,08,21,15,54,29.60
2018,08,21,15,55,29.50
2018,08,21,15,56,29.50
2018,08,21,15,57,29.40
2018,08,21,15,58,29.40
2018,08,21,15,59,29.40
2018,08,21,16,00,29.40
2018,08,21,16,01,29.40
2018,08,21,16,02,29.30
2018,08,21,16,03,29.30
2018,08,21,16,04,29.40
2018,08,21,16,05,29.40
2018,08,21,16,06,29.40
2018,08,21,16,07,29.40
2018,08,21,16,08,29.40
2018,08,21,16,09,29.40
2018,08,21,16,10,29.40
2018,08,21,16,11,29.40
2018,08,21,16,12,29.40
2018,08,21,16,13,29.40
2018,08,21,16,14,29.40
2018,08,21,16,15,29.40
2018,08,21,16,16,29.40
2018,08,21,16,17,29.40
2018,08,21,16,18,29.40
2018,08,21,16,19,29.40
2018,08,21,16,20,29.40
2018,08,21,16,21,29.30
2018,08,21,16,22,29.30
2018,08,21,16,23,29.30
2018,08,21,16,24,29.30
2018,08,21,16,25,29.30
2018,08,21,16,26,29.40
2018,08,21,16,27,29.40
2018,08,21,16,28,29.40
2018,08,21,16,29,29.40
2018,08,21,16,30,29.50
2018,08,21,16,31,29.50
2018,08,21,16,32,29.50
2018,08,21,16,33,29.60
2018,08,21,16,34,29.60
2018,08,21,16,35,29.60
2018,08,21,16,36,29.60
2018,08,21,16,37,29.60
2018,08,21,16,38,29.60
2018,08,21,16,39,29.60
2018,08,21,16,40,29.60
2018,08,21,16,41,29.60
2018,08,21,16,42,29.60
2018,08,21,16,43,29.60
2018,08,21,16,44,29.60
2018,08,21,16,45,29.60
2018,08,21,16,46,29.60
2018,08,21,16,47,29.60
2018,08,21,16,48,29.60
2018,08,21,16,49,29.60
2018,08,21,16,50,29.60
2018,08,21,16,51,29.60
2018,08,21,16,52,29.60
2018,08,21,16,53,29.60
2018,08,21,16,54,29.60
2018,08,21,16,55,29.60
2018,08,21,16,56,29.60
2018,08,21,16,57,29.60
2018,08,21,16,58,29.60
2018,08,21,16,59,29.60
2018,08,21,17,00,29.60
2018,08,21,17,01,29.60
2018,08,21,17,02,29.50
2018,08,21,17,03,29.60
2018,08,21,17,04,29.60
2018,08,21,17,05,29.60
2018,08,21,17,06,29.60
2018,08,21,17,07,29.60
2018,08,21,17,08,29.60
2018,08,21,17,09,29.60
2018,08,21,17,10,29.60
2018,08,21,17,11,29.60
2018,08,21,17,12,29.60
2018,08,21,17,13,29.60
2018,08,21,17,14,29.60
2018,08,21,17,15,29.50
2018,08,21,17,16,29.50
2018,08,21,17,17,29.50
2018,08,21,17,18,29.40
2018,08,21,17,19,29.40